{"data":{"norad_id":44333,"intl_designator":"2019-034A","name":"AT&T T-16","alt_names":[],"object_type":"PAYLOAD","status":"ACTIVE","operator":null,"country":"US","launch_date":"2019-06-20","launch_site_code":"FRGUI","launch_vehicle":null,"mission":null,"orbit_class":"UNKNOWN","rcs_meters":null,"size_class":null,"mass_kg":null,"dimensions":null,"purposes":["comms"],"wikipedia_slug":null,"has_3d_model":false,"image_url":null,"decayed_at":null,"tle_current":{"epoch":"2026-05-24T07:38:38.452704Z","epoch_age_seconds":137482,"freshness":"FRESH","line1":"1 44333U 19034A   26144.31850061 -.00000120  00000+0  00000+0 0  9997","line2":"2 44333   0.0374 109.3631 0000667 154.8504 351.5192  1.00272752 25393","mean_motion":1.00272752,"eccentricity":6.67e-5,"inclination_deg":0.0374,"raan_deg":109.3631,"arg_perigee_deg":154.8504,"mean_anomaly_deg":351.5192,"bstar":0,"rev_number":2539,"period_min":1436.0830547465,"perigee_km":35783.511508626,"apogee_km":35789.136247707,"semimajor_km":42164.460878166,"source":"CELESTRAK","updated_at":"2026-05-25T13:38:14.337181Z"}}}